SKYSAT-C8 (42990 NORAD) Tracking and Keplerian Element Data

This shows tracking and keplerian element data for the satellite.

Feedback or suggestion? Click here.




ElementValue
Catalog42990
NameSKYSAT-C8
Epoch Orbit27398
Epoch Day269.59571887
Epoch Year2022
RAAN28.6206
Inclination97.3073
Eccentricity0.000286
Argument of Perigee64.4598
Mean Anonmoly295.6943
Mean Motion15.38024754
Decay Rate9.274E-05
L11 42990U 17068D 22269.59571887 .00009274 00000+0 25002-3 0 9990
L22 42990 97.3073 28.6206 0002860 64.4598 295.6943 15.38024754273987

Live tracking and technical data element details for SKYSAT-C8 (NORAD 42990). SKYSAT-C8 can be tracked NOW for your location showing map with azimuth and elevation plus other details from your city location.

Track the satellite on the map from your city or location and see movement details for azimuth, elevation, latitude, longitude, range, height, and movement on the map or in text.







IsCatalogInMostPopularTable: catalog: 42990, numindb: 659
Update: records affected: 1



GetName: 42990 SKYSAT-C8

Hit Count: updated at: Fri, 30 Sep 2022 03:13:06 GMT